{"data":{"norad_id":40882,"epoch":"2026-05-24T18:19:49.746144Z","epoch_age_seconds":89443,"freshness":"FRESH","line1":"1 40882U 15042A   26144.76377021  .00000047  00000+0  00000+0 0  9993","line2":"2 40882   0.0165 337.5643 0000409  68.4838 290.8572  1.00272017 39338","mean_motion":1.00272017,"eccentricity":4.09e-5,"inclination_deg":0.0165,"raan_deg":337.5643,"arg_perigee_deg":68.4838,"mean_anomaly_deg":290.8572,"bstar":0,"rev_number":3933,"period_min":1436.0935813229,"perigee_km":35784.805388417,"apogee_km":35788.254458171,"semimajor_km":42164.666923294,"source":"CELESTRAK","updated_at":"2026-05-25T13:38:13.991933Z"}}